Regional Weather Roundup
Issued by NWS

Home | Current Version | Previous Version | Text Only | Print | Product List | Glossary Off
Versions: 1 2 3 4 5 6 7 8 9 10 11 12 13 14 15 16 17 18 19 20 21 22 23 24 25 26 27 28 29 30 31 32 33 34 35 36 37 38 39 40 41 42 43 44 45 46 47 48 49 50

000
ASUS43 KDTX 011710
RWRMI
MICHIGAN HOURLY REGIONAL WEATHER ROUNDUP
NATIONAL WEATHER SERVICE DETROIT/PONTIAC MI
1200 PM EST SUN MAR 01 2015

NOTE: "FAIR" INDICATES FEW OR NO CLOUDS BELOW 12,000 FEET WITH NO
SIGNIFICANT WEATHER AND/OR OBSTRUCTION TO VISIBILITY.

MIZ047>049-052>055-059>063-066>070-074>076-081>083-011800-
SOUTHEAST LOWER MICHIGAN

CITY           SKY/WX    TMP DP  RH WIND       PRES   REMARKS
ADRIAN         LGT SNOW  19  16  88 CALM      30.33F VSB 1
ALMA           PTSUNNY   19  14  81 SW5       30.32F WCI  12
ANN ARBOR      CLOUDY    21  14  74 W3        30.32F
BAD AXE        SUNNY     19  12  72 W7        30.33R WCI  10
CARO           MOSUNNY   21  12  70 W9        30.32F WCI  10
DETROIT CITY   CLOUDY    23  15  71 W3        30.33F
DETROIT        LGT SNOW  22  16  78 SW5       30.35F WCI  16
FLINT          PTSUNNY   22  12  65 W5        30.32F WCI  16
GROSSE ILE     LGT SNOW  21  18  86 CALM      30.33F
HILLSDALE      LGT SNOW  20  17  85 CALM      30.30F
HOWELL         CLOUDY    22  14  71 W3        30.30F

CITY           SKY/WX    TMP DP  RH WIND       PRES   REMARKS
JACKSON        PTSUNNY   21  13  71 CALM      30.31F
LAMBERTVILLE   LGT SNOW  23  18  80 CALM      30.35F
LANSING        CLOUDY    20  12  71 CALM      30.32F
LAPEER         FAIR      22  12  66 W5        30.31F WCI  16
MASON          CLOUDY    20  12  71 CALM      30.31F
MONROE         LGT SNOW  21  18  86 W3        30.33F
MT. CLEMENS    CLOUDY    20  15  81 E5        30.31F WCI  14
PONTIAC        CLOUDY    21  14  74 NW6       30.29F WCI  13
PORT HOPE        N/A     20  10  65 SW7       30.31F WCI  11
PORT HURON     PTSUNNY   23  16  74 SW5       30.32F WCI  17
TRI CITIES     PTSUNNY   20  12  71 SW7       30.32F WCI  11
TROY           CLOUDY    25  16  67 CALM      30.34F
SAGINAW HB     PTSUNNY   21  14  73 SW8       30.32F WCI  12
$$
MIZ043>046-050>051-056>058-064>065-071>073-077>080-011800-
SOUTHWEST LOWER MICHIGAN

CITY           SKY/WX    TMP DP  RH WIND       PRES   REMARKS
BATTLE CREEK   CLOUDY    20  13  74 SW6       30.32F WCI  12
BENTON HARBOR  CLOUDY    20  16  84 S5        30.35F WCI  13
BIG RAPIDS     LGT SNOW  22  16  79 W8        30.27F WCI  12
COLDWATER      LGT SNOW  21  16  79 CALM      30.32F
FREMONT        LGT SNOW  20  15  78 S5        30.30F WCI  14
HOLLAND        CLOUDY    22  16  78 S6        30.34S HAZE    WCI  14
GRAND RAPIDS   CLOUDY    18  13  80 S6        30.32F WCI  10
IONIA          FAIR      19  13  80 SW3       30.31F
KALAMAZOO      CLOUDY    20  14  77 S7        30.33F WCI  11
LUDINGTON      PTSUNNY   23  14  69 W8        30.31F WCI  14
MARSHALL       CLOUDY    22  14  71 CALM      30.31F
MOUNT PLEASANT PTSUNNY   21  13  71 SE5       30.29F WCI  15
MUSKEGON       LGT SNOW  22  17  81 SW9       30.32F WCI  12
SOUTH HAVEN    CLOUDY    23  15  73 CALM      30.34F
$$
MIZ016>042-011800-
NORTHERN LOWER MICHIGAN

CITY           SKY/WX    TMP DP  RH WIND       PRES   REMARKS
ALPENA         MOSUNNY   24  10  55 SW13G18   30.26F WCI  12
BEAVER ISLAND  MOSUNNY   21  13  71 SW13      30.23S WCI   9
BELLAIRE       LGT SNOW  22  14  71 SW7       30.27F WCI  14
CADILLAC       FLURRIES  20  13  74 SW10      30.23F WCI   8
CHARLEVOIX     PTSUNNY   22  13  69 SW9       30.28F WCI  11
FRANKFORT      LGT SNOW  22  16  77 W8        30.28F WCI  13
GAYLORD        FLURRIES  17  12  80 W12       30.22S WCI   4
GRAYLING       FLURRIES  21  11  66 W9        30.24F WCI  10
HARBOR SPRINGS CLOUDY    20  11  66 W8        30.25F WCI  11
HOUGHTON LAKE  PTSUNNY   20  11  68 SW8       30.25F WCI  10
MANISTEE       PTSUNNY   21  12  68 W13       30.29F WCI   9
OSCODA         MOSUNNY   23  11  61 SW8       30.29S WCI  13
PELLSTON       PTSUNNY   21  10  62 SW15G23   30.25S WCI   8
ROGERS CITY    CLOUDY    23  13  66 SW9       30.26S WCI  13
TRAVERSE CITY  CLOUDY    24  15  68 W8        30.26F WCI  15
$$
MIZ007>008-015-011800-
EASTERN UPPER MICHIGAN

CITY           SKY/WX    TMP DP  RH WIND       PRES   REMARKS
KINROSS        SUNNY     25  10  54 SW12G18   30.18F WCI  14
MACKINAC ISLAN SUNNY     19  11  70 SW13G20   30.22S WCI   7
NEWBERRY       SUNNY     20   9  63 SW7       30.17S WCI  11
S. S. MARIE    MOSUNNY   23   8  52 SW10      30.18F WCI  12
MUNISING         N/A     23   7  50 VRB5      30.16F WCI  17
$$
MIZ004>006-011>014-085-011800-
CENTRAL UPPER MICHIGAN

CITY           SKY/WX    TMP DP  RH WIND       PRES   REMARKS
MANISTIQUE     SUNNY     20  10  64 S13       30.20F WCI   8
ESCANABA       MOSUNNY   19  10  68 S15       30.21F WCI   5
MENOMINEE      MOSUNNY   21  10  63 SW15      30.22F WCI   8
SAWYER-GWINN   SUNNY     19   7  58 S9        30.11F WCI   9
$$
MIZ001>003-009>011-084-011800-
WESTERN UPPER MICHIGAN

CITY           SKY/WX    TMP DP  RH WIND       PRES   REMARKS
IRON MOUNTAIN  MOSUNNY   23  11  60 SW9       30.12F WCI  13
HOUGHTON       LGT SNOW  18  10  71 W16G23    30.08S WCI   3
COPPER HARBOR    N/A     23  10  57 VRB6      30.09F WCI  16
IRONWOOD       CLOUDY    18  10  73 SW12      30.10R WCI   5
$$

ABBREVIATIONS USED IN REMARKS
   TC - TEMPERATURE IN CELSIUS
  WCI - WIND CHILL INDEX
   HX - HEAT INDEX
  VSB - VISIBILITY




USA.gov is the U.S. government's official web portal to all federal, state and local government web resources and services.